Regional Weather Roundup
Issued by NWS

Home | Current Version | Previous Version | Graphics & Text | Print | Product List | Glossary On
Versions: 1 2 3 4 5 6 7 8 9 10 11 12 13 14 15 16 17 18 19 20 21 22 23 24 25 26 27 28 29 30 31 32 33 34 35 36 37 38 39 40 41 42 43 44 45 46 47 48 49 50
000
ASUS45 KBOU 061110
RWRCO

WEATHER ROUNDUP FOR COLORADO
NATIONAL WEATHER SERVICE DENVER/BOULDER CO
500 AM MDT MON JUL 06 2015

NOTE: "FAIR" INDICATES FEW OR NO CLOUDS BELOW 12000 FEET WITH NO
SIGNIFICANT WEATHER AND/OR OBSTRUCTIONS TO VISIBILITY.

COZ001>005-013-030-031-061200-
...NORTHWEST COLORADO...

CITY           SKY/WX    TMP DP  RH WIND       PRES   REMARKS
CRAIG          FOG       51  50  96 CALM      30.24S VSB 1/4
HAYDEN         MOCLDY    54  50  87 SE8       30.25S
MEEKER         MOCLDY    55  51  86 MISG      30.25R
MOUNT WERNER   NOT AVBL
STEAMBOAT SPGS CLOUDY    50  50  99 CALM      30.26S VSB 1
WALDEN         CLOUDY    50  46  87 CALM      30.32S
$$

COZ006>008-011-061200-
...WEST CENTRAL VALLEYS...

CITY           SKY/WX    TMP DP  RH WIND       PRES   REMARKS
GRAND JUNCTION PTCLDY    61  58  90 E8        30.13R
MONTROSE       MOCLDY    59  54  83 S5        30.21R
EAGLE          CLOUDY    55  55 100 CALM      30.28S
RIFLE          MOCLDY    58  55  90 E3        30.19S
DELTA          MOCLDY    60  56  88 N6        30.17S
NUCLA          MOCLDY    59  54  82 SE7       30.23R
$$

COZ017>023-064>068-061200-
...SOUTHWEST COLORADO...

CITY           SKY/WX    TMP DP  RH WIND       PRES   REMARKS
DURANGO        CLOUDY    56  50  80 CALM      30.20R
CORTEZ         PTCLDY    61  53  75 E5        30.18S
PAGOSA SPRINGS CLOUDY    53  51  92 CALM      30.27S
TELLURIDE      MOCLDY    49  48  96 SE6       30.41S
WOLF CREEK PAS NOT AVBL
$$

COZ009-010-012-014-032>034-037-058>063-061200-
...CENTRAL COLORADO...

CITY           SKY/WX    TMP DP  RH WIND       PRES   REMARKS
ASPEN          MOCLDY    50  47  89 S6        30.32R
BUENA VISTA    PTCLDY    56  47  71 W8        30.30R
COPPER MTN     CLOUDY    46  41  81 W16       30.57R
BERTHOUD PASS  MOCLDY    37  28  70 NW17      30.59R
COTTONWOOD PAS NOT AVBL
GUNNISON       PTCLDY    50  45  81 CALM      30.34R
KREMMLING      PTCLDY    50  45  81 SE3       30.32R
LEADVILLE      PTCLDY    45  45 100 NE6       30.42S
MONARCH PASS   MOCLDY    45  37  76 NW8       30.65S
SALIDA         PTCLDY    58  51  77 SW7       30.34R
SUNLIGHT       MOCLDY    50  45  81 N3        30.53S
WILKERSON PASS PTCLDY    45  43  93 CALM      30.53S
$$

COZ069>075-061200-
...SAN LUIS VALLEY/SANGRE DE CRISTO MOUNTAINS...

CITY           SKY/WX    TMP DP  RH WIND       PRES   REMARKS
ALAMOSA        MOCLDY    55  52  89 NE6       30.25S
LA VETA PASS   CLOUDY    46  45  93 MISG      30.43S
SAGUACHE       PTCLDY    52  50  93 CALM      30.31R
$$

COZ035-036-038>040-061200-
...NORTHERN COLORADO FRONT RANGE...

CITY           SKY/WX    TMP DP  RH WIND       PRES   REMARKS
DENVER INTL AP CLOUDY    60  59  96 N6        30.18R
DMNS CITY PARK   N/A     62  58  88 NE6G14    30.18R
AURORA         CLOUDY    60  60 100 N7        30.20R
FRONT RANGE AP NOT AVBL
ERIE MUNI ARPT DRIZZLE   62  60  94 CALM      30.17S
BOULDER MUN AP CLOUDY    61  59  94 CALM      30.18S
CENTENNIAL     CLOUDY    61  58  90 N10       30.20R
BROOMFIELD     CLOUDY    61  59  94 N6        30.21R
FORT COLLINS   MOCLDY    63  55  77 N7        30.18S
LONGMONT       CLOUDY    64  61  91 CALM      30.19R
$$

COZ041-046-047-076>085-087-088-061200-
...PIKES PEAK/PALMER DIVIDE AND SOUTHERN FOOTHILLS...

CITY           SKY/WX    TMP DP  RH WIND       PRES   REMARKS
COLO. SPRINGS  MOCLDY    63  56  78 NW12      30.19S
A. F. ACADEMY  DRIZZLE   59  57  94 N14       30.20F
ELLICOTT       MOCLDY   N/A N/A N/A N12       30.16R
FALCON         MOCLDY    58  56  91 N18G24    30.22S
FORT CARSON    MOCLDY    63  57  80 N10       30.16R
LIMON          CLOUDY    61  59  93 N18G25    30.12F
MONUMENT HILL  CLOUDY    55  54  94 MISG      30.26R FOG
TRINIDAD       MOCLDY    62  57  83 W3        30.14S
$$

COZ042>045-048>051-090-091-061200-
...NORTHEAST COLORADO...

CITY           SKY/WX    TMP DP  RH WIND       PRES   REMARKS
GREELEY ARPT   CLOUDY    63  55  77 N9        30.16S
AKRON          CLOUDY    62  59  90 N12       30.11R
BURLINGTON     LGT RAIN  64  61  90 N18G28    30.01R
WRAY           CLOUDY    66  62  86 N10       30.04R
STERLING       CLOUDY    63  61  94 N9          N/A
HOLYOKE        CLOUDY    64  61  88 N13       30.05S
FORT MORGAN    CLOUDY    62  57  83 N12       30.13R
$$

COZ086-089-092>099-061200-
...SOUTHEAST COLORADO...

CITY           SKY/WX    TMP DP  RH WIND       PRES   REMARKS
PUEBLO         CLOUDY    70  58  65 SW7       30.09R
LA JUNTA       CLOUDY    68  62  81 NW5       30.06R
LAMAR          LGT RAIN  68  64  87 NW7       29.99R
SPRINGFIELD      N/A     67  61  81 NW15      30.01R
$$



USA.gov is the U.S. government's official web portal to all federal, state and local government web resources and services.